Arlington Reef Observation History
Time Wind Speed Temp Pressure Rel. Hum Rain
04/05:00am SSE 23-27 kts n/a 1016.6 hPa n/a n/a
04/04:30am SSE 23-26 kts n/a 1016.6 hPa n/a n/a
04/04:00am SSE 23-27 kts n/a 1016.5 hPa n/a n/a
04/03:30am SSE 22-27 kts n/a 1016.7 hPa n/a n/a
04/03:00am SSE 22-27 kts n/a 1017.0 hPa n/a n/a
04/02:30am SSE 21-25 kts n/a 1017.3 hPa n/a n/a
04/02:00am SSE 21-24 kts n/a 1017.5 hPa n/a n/a
04/01:30am SSE 21-24 kts n/a 1017.8 hPa n/a n/a
04/01:00am SSE 20-25 kts n/a 1018.0 hPa n/a n/a
04/12:30am SSE 19-24 kts n/a 1018.3 hPa n/a n/a
04/12:00am SSE 20-23 kts n/a 1018.5 hPa n/a n/a
Time Wind Speed Temp Pressure Rel. Hum Rain
03/11:30pm SSE 20-24 kts n/a 1018.8 hPa n/a n/a
03/11:00pm SSE 18-22 kts n/a 1019.3 hPa n/a n/a
03/10:30pm SSE 20-23 kts n/a 1019.6 hPa n/a n/a
03/10:00pm SSE 20-24 kts n/a 1019.8 hPa n/a n/a
03/09:30pm SE 20-25 kts n/a 1020.0 hPa n/a n/a
03/09:00pm SSE 21-25 kts n/a 1019.6 hPa n/a n/a
03/08:30pm SSE 21-26 kts n/a 1019.4 hPa n/a n/a
03/08:00pm SSE 22-28 kts n/a 1018.9 hPa n/a n/a
03/07:30pm SSE 23-26 kts n/a 1018.4 hPa n/a n/a
03/07:00pm SSE 22-26 kts n/a 1018.2 hPa n/a n/a
03/06:30pm SSE 22-25 kts n/a 1017.8 hPa n/a n/a
03/06:00pm SSE 23-27 kts n/a 1017.8 hPa n/a n/a
03/05:30pm SSE 23-28 kts n/a 1017.5 hPa n/a n/a
03/05:00pm SSE 23-27 kts n/a 1017.0 hPa n/a n/a
03/04:30pm SSE 21-25 kts n/a 1016.8 hPa n/a n/a
03/04:00pm SE 21-25 kts n/a 1016.7 hPa n/a n/a
03/03:30pm SSE 20-23 kts n/a 1016.5 hPa n/a n/a
03/03:00pm SSE 21-24 kts n/a 1016.5 hPa n/a n/a
03/02:30pm SSE 22-25 kts n/a 1016.5 hPa n/a n/a
03/02:00pm SE 21-25 kts n/a 1016.7 hPa n/a n/a
03/01:30pm SE 22-25 kts n/a 1016.9 hPa n/a n/a
03/01:00pm SE 22-26 kts n/a 1017.2 hPa n/a n/a
03/12:30pm SSE 24-28 kts n/a 1017.5 hPa n/a n/a
03/12:00pm SE 21-27 kts n/a 1018.1 hPa n/a n/a
03/11:30am SE 23-27 kts n/a 1018.3 hPa n/a n/a
03/11:00am SE 23-29 kts n/a 1018.5 hPa n/a n/a
03/10:30am SE 22-26 kts n/a 1018.7 hPa n/a n/a
03/10:00am SE 21-26 kts n/a 1018.9 hPa n/a n/a
03/09:30am SE 23-27 kts n/a 1018.6 hPa n/a n/a
03/09:00am SE 22-27 kts n/a 1018.5 hPa n/a n/a
03/08:30am SE 23-27 kts n/a 1018.3 hPa n/a n/a
03/08:00am SE 22-26 kts n/a 1018.1 hPa n/a n/a
03/07:30am SE 22-26 kts n/a 1017.8 hPa n/a n/a
03/07:00am SE 23-27 kts n/a 1017.6 hPa n/a n/a
03/06:30am SE 22-26 kts n/a 1017.1 hPa n/a n/a
03/06:00am SE 20-24 kts n/a 1016.8 hPa n/a n/a
03/05:30am SE 21-25 kts n/a 1016.4 hPa n/a n/a
03/05:00am SE 20-23 kts n/a 1016.2 hPa n/a n/a
03/04:30am SSE 20-23 kts n/a 1016.1 hPa n/a n/a
03/04:00am SE 20-23 kts n/a 1016.2 hPa n/a n/a
03/03:30am SE 19-22 kts n/a 1016.1 hPa n/a n/a
03/03:00am SE 17-20 kts n/a 1016.2 hPa n/a n/a
03/02:30am SE 17-20 kts n/a 1016.4 hPa n/a n/a
03/02:00am SE 18-21 kts n/a 1016.8 hPa n/a n/a
03/01:30am SE 16-18 kts n/a 1017.1 hPa n/a n/a
03/01:00am SE 18-20 kts n/a 1017.5 hPa n/a n/a
03/12:30am SE 17-19 kts n/a 1017.8 hPa n/a n/a
03/12:00am SE 16-19 kts n/a 1017.9 hPa n/a n/a
Time Wind Speed Temp Pressure Rel. Hum Rain
02/11:30pm SE 16-19 kts n/a 1018.2 hPa n/a n/a
02/11:00pm SE 16-18 kts n/a 1018.4 hPa n/a n/a
02/10:30pm SE 17-19 kts n/a 1018.7 hPa n/a n/a
02/10:00pm SE 16-19 kts n/a 1018.7 hPa n/a n/a
02/09:30pm SSE 17-19 kts n/a 1018.4 hPa n/a n/a
02/09:00pm SSE 16-19 kts n/a 1018.3 hPa n/a n/a
02/08:30pm SSE 18-20 kts n/a 1018.3 hPa n/a n/a
02/08:00pm SSE 17-21 kts n/a 1018.0 hPa n/a n/a
02/07:30pm SSE 18-21 kts n/a 1017.5 hPa n/a n/a
02/07:00pm SSE 17-20 kts n/a 1017.4 hPa n/a n/a
02/06:30pm SSE 17-20 kts n/a 1017.1 hPa n/a n/a
02/06:00pm SSE 18-22 kts n/a 1016.7 hPa n/a n/a
02/05:30pm SSE 20-22 kts n/a 1016.4 hPa n/a n/a
02/05:00pm SSE 19-22 kts n/a 1016.2 hPa n/a n/a
02/04:30pm SSE 19-23 kts n/a 1016.0 hPa n/a n/a
02/04:00pm SSE 19-23 kts n/a 1016.0 hPa n/a n/a
02/03:30pm SSE 19-22 kts n/a 1015.8 hPa n/a n/a
02/03:00pm SSE 19-23 kts n/a 1015.9 hPa n/a n/a
02/02:30pm SSE 19-23 kts n/a 1015.9 hPa n/a n/a
02/02:00pm SSE 18-23 kts n/a 1016.1 hPa n/a n/a
02/01:30pm S 18-22 kts n/a 1016.4 hPa n/a n/a
02/01:00pm SSE 18-22 kts n/a 1016.8 hPa n/a n/a
02/12:30pm S 18-22 kts n/a 1017.2 hPa n/a n/a
02/12:00pm S 16-19 kts n/a 1017.5 hPa n/a n/a
02/11:30am S 16-19 kts n/a 1017.7 hPa n/a n/a
02/11:00am S 15-18 kts n/a 1017.9 hPa n/a n/a
02/10:30am S 16-18 kts n/a 1018.1 hPa n/a n/a
02/10:00am S 15-17 kts n/a 1018.2 hPa n/a n/a
02/09:30am S 13-15 kts n/a 1018.3 hPa n/a n/a
02/09:00am S 12-14 kts n/a 1018.1 hPa n/a n/a
02/08:30am S 12-15 kts n/a 1017.8 hPa n/a n/a
02/08:00am S 12-14 kts n/a 1017.7 hPa n/a n/a
02/07:30am S 12-14 kts n/a 1017.4 hPa n/a n/a
02/07:00am S 12-15 kts n/a 1017.1 hPa n/a n/a
02/06:30am S 11-14 kts n/a 1016.8 hPa n/a n/a
02/06:00am SSE 10-13 kts n/a 1016.6 hPa n/a n/a
02/05:30am SSE 11-13 kts n/a 1016.4 hPa n/a n/a
02/05:00am SE 10-12 kts n/a 1016.4 hPa n/a n/a
02/04:30am SE 9-11 kts n/a 1016.4 hPa n/a n/a
02/04:00am SE 9-11 kts n/a 1016.0 hPa n/a n/a
02/03:30am SE 8-11 kts n/a 1016.0 hPa n/a n/a
02/03:00am SE 8-10 kts n/a 1016.1 hPa n/a n/a
02/02:30am SE 9-11 kts n/a 1016.1 hPa n/a n/a
02/02:00am SE 8-10 kts n/a 1016.3 hPa n/a n/a
02/01:30am ESE 9-11 kts n/a 1016.6 hPa n/a n/a
02/01:00am ESE 9-11 kts n/a 1016.8 hPa n/a n/a
02/12:30am ESE 9-11 kts n/a 1017.0 hPa n/a n/a
02/12:00am ESE 10-11 kts n/a 1017.2 hPa n/a n/a